Zurück zum Katalog

STARLINK-36080

AktivKommunikationVLEO
NORAD 66801·PAYLOAD·🇺🇸 United States

Gestartet Dec 1, 2025 von Cape Canaveral Space Force Station

Loading…

Nächste Überflüge (nächste 24 Stunden)

TLE

AktuellSource: CelesTrak SupGP

Epoche: Sep 15, 2026, 03:36 UTC

1 66801C 25278L   26258.15048611  .00043162  00000+0  15631-2 0  2585
2 66801  43.0001 124.7899 0001497 270.0188 321.8085 15.27562045    13

Verfolge STARLINK-36080 in Echtzeit mit AllMySat

Download on the App Store